Temperature
12 12 12 12 12 13 13 13 14 14 14 14 14 14 14 14 14 14 14 14 14 15 15 15 15 15 15 14 14 15 14 14 14 15 15 15 15 15 15 15 15 14 15
12 12 12 12 12 12 13 13 13 13 13 13 13 13 13 14 14 14 14 14 14 14 14 14 14 14 14 14 14 14 14 14 14 14 14 14 15 15 15 15 15 14 14
12 12 12 12 12 12 12 12 12 13 13 13 13 13 13 13 13 14 14 14 14 14 14 14 14 14 14 14 14 14 14 14 14 14 14 14 14 14 14 14 14 14 14
12 11 12 12 12 12 12 12 12 12 12 13 13 13 13 13 13 13 13 13 13 14 14 14 14 14 14 14 14 14 14 14 14 14 14 14 14 14 14 14 14 14 14
11 11 11 11 12 12 12 12 12 12 12 12 12 12 12 12 13 13 13 13 13 13 13 14 14 14 14 13 13 13 13 14 14 14 14 14 13 13 14 14 14 14 14
11 11 11 11 11 11 11 11 12 12 12 12 12 12 12 12 12 12 13 13 13 13 13 13 13 13 13 13 13 13 13 13 13 13 13 13 13 13 13 13 14 14 14
11 11 11 11 11 11 11 11 11 11 11 11 11 11 12 12 12 12 12 12 12 12 12 13 13 13 13 13 13 13 13 13 13 13 13 13 13 13 13 13 13 13 13
11 11 10 10 10 11 11 11 11 11 11 11 11 11 11 11 11 11 12 12 12 12 12 12 12 13 13 13 13 13 13 13 13 13 13 13 13 13 13 13 13 13 13
10 10 10 10 10 10 10 10 10 10 10 10 10 11 11 11 11 11 11 11 11 11 12 12 12 12 12 12 12 12 12 12 12 12 13 13 13 13 13 13 13 13 13
9 10 10 10 10 10 10 10 10 10 10 10 10 10 10 10 11 11 11 11 11 11 11 11 12 12 12 12 12 12 12 12 12 12 12 12 12 12 12 12 12 12 12
9 9 9 9 9 9 9 9 10 10 10 10 10 10 10 10 10 10 10 10 10 11 11 11 11 11 11 11 12 12 12 12 12 12 12 12 12 12 12 12 12 12 12
9 9 9 9 9 9 9 9 9 10 10 10 10 10 10 10 10 10 10 10 10 10 10 10 11 11 11 11 11 11 11 11 11 11 11 11 12 11 12 12 12 12 12
8 8 8 8 8 8 9 9 9 9 9 9 9 9 9 9 9 9 9 10 10 10 10 10 10 10 10 10 11 11 11 11 11 11 11 11 11 11 11 11 11 11 11
8 8 8 8 8 8 8 8 8 9 9 9 9 9 9 9 9 9 9 9 9 9 9 9 9 10 10 10 10 10 10 10 10 11 10 10 11 11 11 11 11 11 11
8 7 7 7 7 7 7 8 8 8 8 8 8 8 8 8 8 8 8 8 8 8 8 9 9 9 9 9 9 10 10 10 10 10 10 10 10 10 10 10 10 10 10
7 7 7 7 7 7 7 7 7 7 8 8 8 8 8 8 8 8 8 8 8 8 8 8 8 8 9 9 9 9 9 9 9 10 10 10 10 10 10 10 10 10 10
7 7 6 6 6 6 6 6 7 7 7 7 7 7 7 7 7 7 7 7 7 7 7 7 7 7 8 8 8 8 9 9 9 9 9 10 10 10 10 10 10 10 10
6 6 6 6 6 6 6 6 6 6 6 6 6 6 6 6 6 7 7 7 6 6 6 6 7 7 7 7 8 8 8 8 9 9 9 9 9 9 9 9 9 9 9
6 6 5 5 5 5 5 5 5 5 6 6 6 6 6 6 6 6 6 6 6 6 6 6 6 6 7 7 7 7 8 8 8 8 9 9 9 9 9 9 9 9 9
5 5 5 5 5 5 5 5 5 5 5 5 5 5 5 5 5 5 5 5 5 5 5 5 5 5 6 6 6 7 7 7 7 8 8 8 8 9 9 9 9 9 9
4 4 4 4 4 4 4 4 4 4 4 4 4 5 5 5 5 5 5 5 5 5 5 5 5 5 5 5 6 6 6 7 7 7 8 8 8 8 8 8 8 9 9
4 4 4 4 4 4 4 4 4 4 4 4 4 4 4 4 4 4 4 4 4 4 4 4 4 4 4 4 4 5 5 5 6 6 7 7 7 8 8 8 8 8 8
3 3 3 3 3 3 3 3 3 3 3 3 3 3 3 3 4 4 4 4 4 4 4 4 4 4 4 4 4 4 4 4 4 5 6 6 7 7 7 7 8 8 8
2 3 3 3 3 3 2 2 2 2 2 3 3 3 3 3 3 3 3 3 3 3 3 3 3 3 3 3 4 4 4 4 4 4 5 6 6 6 6 7 7 7 7
2 2 2 2 2 2 2 2 2 2 2 2 2 2 2 2 2 2 2 3 2 2 2 2 3 3 3 3 3 3 3 4 4 4 4 4 5 6 6 6 6 7 7
1 1 1 1 1 1 1 1 1 1 1 1 1 1 1 2 2 2 2 2 2 2 2 2 2 2 2 2 2 3 3 3 3 4 3 4 4 5 5 5 6 6 6
Wind_Speed
1 1 4 5 7 8 8 9 10 10 10 10 11 11 12 12 12 13 13 12 12 12 12 12 12 12 12 12 13 13 14 14 14 15 15 16 16 16 16 16 15 15 17
3 3 5 6 7 8 9 9 10 11 10 10 10 11 11 12 12 12 12 12 12 11 12 12 12 12 11 11 12 13 13 14 14 14 14 14 15 16 15 15 15 14 16
5 5 6 7 8 9 9 10 10 10 11 11 11 11 11 11 11 12 12 12 11 11 11 11 12 12 11 11 11 11 13 13 13 13 13 12 13 15 15 15 15 15 16
7 6 6 7 9 10 10 10 10 10 10 11 11 11 11 11 11 11 11 11 11 11 11 11 11 11 11 10 10 10 11 12 12 12 10 10 11 13 14 15 15 15 15
7 7 7 9 10 10 10 10 10 10 10 10 11 11 11 11 10 10 10 10 11 10 10 10 10 10 10 10 9 10 10 11 12 11 10 9 10 12 13 14 14 14 15
6 7 7 10 10 10 10 10 10 9 9 10 10 10 10 10 10 9 9 10 10 10 9 9 9 9 9 9 8 9 9 10 11 10 9 9 9 12 12 13 13 14 14
5 7 7 9 10 10 10 10 10 9 9 9 9 9 9 9 9 9 9 9 9 8 8 8 8 8 8 9 8 8 8 9 10 9 8 8 9 11 12 12 12 13 13
6 6 7 8 9 9 9 10 9 9 9 9 9 9 9 9 9 8 9 8 8 8 8 8 7 7 8 8 8 8 8 8 8 8 7 7 9 10 11 11 12 12 13
7 6 6 8 8 8 9 9 9 9 8 8 8 8 8 9 8 8 8 8 7 7 7 7 7 6 7 7 7 7 7 7 7 6 6 6 7 9 10 10 11 11 12
5 5 5 7 7 7 8 8 9 9 8 8 8 8 8 8 7 7 7 7 7 6 6 6 6 6 6 7 7 7 7 7 7 6 6 6 7 8 9 10 10 10 11
4 3 4 5 6 6 7 7 7 8 8 8 7 7 8 7 7 6 6 6 6 6 6 6 6 6 6 7 7 6 6 6 6 5 5 6 7 7 8 9 9 10 10
4 2 3 4 4 5 5 6 6 6 7 7 7 7 6 6 6 6 6 6 6 6 5 5 6 6 6 6 6 6 6 5 5 4 5 6 6 6 7 8 9 10 10
5 3 2 3 4 4 4 5 5 5 5 6 6 6 6 6 5 6 6 6 6 6 6 5 6 6 5 5 5 5 6 5 4 4 4 6 6 7 7 7 8 9 10
5 4 3 2 3 4 4 4 4 4 4 4 4 4 5 4 4 4 4 4 5 5 5 5 5 5 5 4 4 4 5 5 4 3 4 5 6 7 7 7 7 9 9
5 4 3 3 3 3 4 3 3 3 3 2 3 3 4 3 2 3 2 3 4 4 3 3 4 4 4 4 4 3 4 4 4 3 3 4 5 6 7 7 7 8 9
6 5 4 4 3 4 3 2 2 2 2 2 2 2 3 3 2 2 2 2 3 3 2 3 3 3 2 3 3 3 3 3 3 3 3 2 4 6 7 7 8 9 9
6 6 5 4 4 3 3 3 3 2 2 2 2 2 3 3 2 2 1 1 1 2 2 3 3 3 2 2 2 2 2 3 3 3 3 2 1 3 6 6 6 8 9
5 5 4 4 4 3 2 2 2 2 1 1 1 2 2 2 1 1 1 0 0 1 2 2 1 1 1 1 1 1 1 2 2 2 2 2 2 2 4 5 4 7 8
4 5 4 4 4 3 2 2 2 1 1 1 1 1 1 1 1 1 1 0 0 2 2 1 0 0 0 1 1 1 1 1 1 2 2 2 2 2 3 4 3 4 6
3 4 4 4 3 3 2 2 1 1 1 1 0 1 1 1 1 1 1 1 1 1 0 0 0 0 1 0 0 1 1 1 0 1 1 1 2 2 3 3 3 4 5
2 2 3 3 3 3 2 2 1 1 1 1 0 0 0 0 1 1 1 1 0 1 1 1 1 0 0 0 1 1 2 1 0 0 1 1 2 2 3 4 3 3 3
2 2 3 3 3 3 2 2 2 2 1 1 1 1 1 0 0 1 1 0 1 1 1 1 2 1 1 1 1 1 0 1 2 1 1 1 1 2 2 3 4 4 3
2 2 2 3 3 2 2 1 1 1 0 0 1 1 1 1 1 1 1 1 1 1 2 2 2 2 2 2 1 2 2 2 1 2 1 1 0 1 1 2 4 4 4
2 2 2 2 2 2 2 3 3 2 2 2 2 2 2 2 2 2 2 2 1 1 2 3 2 2 3 3 1 1 1 2 2 1 2 1 1 1 2 2 3 4 5
1 1 2 2 2 1 2 3 3 3 2 1 1 2 2 2 2 3 3 3 2 2 2 3 2 2 2 3 3 2 1 1 1 2 2 2 2 2 2 2 2 3 5
1 1 1 1 1 1 1 2 3 3 3 2 2 3 3 2 2 3 3 3 3 2 3 3 3 3 3 3 3 3 3 2 2 2 2 2 3 3 2 2 2 3 4
Wind_Direction
199 210 117 102 104 100 97 97 95 90 87 85 83 79 76 75 74 74 74 72 73 72 71 70 73 75 78 81 85 86 88 90 89 90 89 91 92 92 91 89 87 86 89
158 141 111 98 105 104 98 94 92 90 87 85 83 81 77 75 74 73 72 71 72 73 71 72 74 73 76 80 84 88 90 92 93 91 89 90 94 94 93 92 90 91 92
116 113 110 99 101 104 99 94 91 88 85 82 81 79 78 76 75 72 70 70 68 70 72 73 75 72 74 78 82 87 92 94 95 94 90 87 94 97 97 95 93 93 92
115 107 106 101 101 104 100 96 92 87 84 82 80 79 79 78 75 72 70 70 67 64 67 70 74 73 70 74 79 83 91 96 96 94 87 85 94 101 102 100 97 95 94
105 106 109 104 102 102 103 97 96 91 86 85 82 79 77 76 75 73 69 69 68 64 64 68 72 73 69 69 75 82 89 95 95 92 84 86 93 103 104 102 100 98 97
102 105 110 105 103 101 99 100 94 95 91 87 84 81 77 74 72 69 68 69 68 65 64 66 69 71 71 68 74 82 87 95 92 88 84 89 97 103 105 104 102 100 99
108 108 110 107 105 101 96 96 95 91 92 88 83 82 79 75 70 67 69 70 68 67 64 65 67 68 68 67 73 80 86 97 96 90 85 90 103 106 106 106 104 102 102
112 107 112 109 106 102 98 94 88 86 86 87 84 79 78 75 70 68 68 68 67 64 63 61 63 63 64 66 72 77 83 104 101 93 88 92 106 112 112 110 108 106 104
101 94 90 99 105 102 96 90 85 81 82 86 83 78 75 74 71 68 66 63 65 65 63 60 57 58 62 60 66 79 89 102 101 95 99 101 111 118 118 115 114 111 108
89 81 83 89 93 95 95 92 86 82 75 78 82 77 71 70 71 69 64 60 59 62 64 63 57 49 57 57 61 75 94 98 103 99 106 115 120 126 125 122 121 120 116
104 90 87 91 91 94 96 92 87 83 74 70 74 73 65 63 67 68 65 61 58 57 58 59 55 48 49 54 57 61 79 98 105 105 117 127 126 132 135 132 130 128 123
144 137 109 101 96 95 94 85 79 78 73 68 68 66 62 63 63 61 61 57 52 46 45 46 48 47 43 44 48 58 67 81 101 110 128 141 140 135 140 138 136 135 132
157 143 128 118 107 99 94 90 78 70 69 70 71 69 68 60 59 55 51 47 42 39 37 34 43 43 43 43 55 66 63 64 83 104 133 148 153 148 145 143 146 144 140
152 151 137 115 111 106 104 96 89 75 66 67 71 77 75 68 60 55 52 41 40 39 39 40 42 41 42 45 63 71 66 62 62 83 129 151 161 165 162 160 157 159 152
156 155 157 131 125 119 105 99 91 81 80 76 73 70 79 86 82 70 62 48 33 37 47 47 46 45 44 44 57 75 71 66 60 63 101 151 166 172 174 173 172 166 163
166 167 165 149 132 122 112 102 100 81 75 91 81 73 82 82 91 91 80 61 34 29 42 56 62 57 49 56 49 68 83 76 69 62 65 104 162 175 181 180 177 171 166
167 162 163 153 131 130 125 111 101 98 91 100 95 89 84 79 84 95 92 78 36 24 41 59 65 62 57 45 29 46 71 77 77 65 62 62 111 163 176 181 181 176 170
154 154 158 144 136 133 126 107 104 98 99 103 99 101 85 72 69 80 97 39 17 81 81 80 83 40 18 11 358 1 44 71 82 91 88 84 89 120 149 162 171 175 171
153 151 151 139 144 144 120 95 91 94 87 122 123 129 119 91 60 54 96 60 84 107 103 93 69 128 75 14 341 346 17 54 97 100 94 103 108 130 142 153 165 167 172
138 141 142 136 132 123 102 83 86 79 32 43 108 173 148 108 88 65 68 46 101 129 136 129 156 46 180 188 69 27 349 321 93 112 142 121 124 134 144 150 155 177 183
106 134 146 141 144 137 143 153 167 205 228 281 292 284 174 125 111 97 69 27 43 218 206 185 180 143 258 115 86 56 7 346 234 202 153 139 137 147 144 151 150 153 176
153 167 168 165 168 173 179 182 190 196 220 247 291 330 261 230 194 164 114 272 280 240 210 200 176 204 241 186 150 134 95 337 349 305 253 200 200 139 138 164 155 152 163
176 189 188 188 180 186 180 162 136 102 49 340 291 277 279 254 236 211 207 217 236 223 214 215 203 190 208 239 204 170 167 205 260 307 299 251 249 200 182 168 167 171 175
228 209 197 187 183 185 178 178 176 191 220 244 235 253 289 269 243 215 210 218 227 226 229 224 219 222 200 219 232 231 210 166 175 219 289 297 290 244 235 214 180 175 178
256 239 211 195 182 189 192 193 198 223 236 260 250 253 262 276 247 225 214 210 224 233 234 233 229 218 216 220 221 214 211 243 204 188 226 264 294 270 250 235 204 175 177
335 343 310 221 231 215 206 206 208 224 235 233 245 242 253 260 262 241 226 215 225 234 236 234 228 219 223 227 230 222 205 201 201 194 212 236 250 273 278 240 221 202 185
Height
1529 1531 1532 1533 1534 1535 1535 1535 1535 1535 1535 1536 1536 1536 1537 1537 1537 1537 1537 1538 1538 1538 1539 1539 1539 1539 1539 1539 1540 1540 1540 1540 1541 1541 1542 1542 1542 1542 1543 1543 1543 1543 1543
1528 1530 1531 1533 1534 1534 1535 1535 1535 1535 1536 1536 1536 1536 1537 1537 1537 1537 1538 1538 1538 1539 1539 1540 1540 1540 1540 1540 1540 1541 1541 1541 1542 1542 1543 1543 1543 1544 1544 1544 1545 1545 1545
1528 1529 1531 1532 1533 1534 1534 1535 1535 1535 1535 1536 1536 1536 1537 1537 1537 1537 1538 1538 1538 1539 1540 1540 1540 1540 1541 1541 1541 1542 1542 1542 1543 1543 1544 1544 1544 1545 1545 1546 1546 1546 1546
1527 1529 1530 1531 1532 1533 1534 1534 1535 1535 1535 1536 1536 1536 1536 1537 1537 1538 1538 1538 1539 1539 1540 1540 1540 1541 1541 1542 1542 1542 1543 1543 1544 1544 1545 1545 1545 1546 1547 1547 1547 1548 1548
1527 1528 1529 1530 1531 1532 1533 1533 1534 1535 1535 1535 1535 1536 1536 1536 1537 1537 1538 1538 1538 1539 1540 1540 1541 1541 1541 1542 1542 1543 1543 1544 1544 1545 1545 1546 1546 1547 1548 1548 1548 1549 1549
1526 1528 1529 1530 1530 1531 1532 1533 1533 1534 1535 1535 1535 1535 1535 1536 1536 1537 1537 1537 1538 1538 1539 1540 1540 1541 1542 1542 1542 1543 1544 1544 1545 1545 1546 1547 1547 1548 1548 1549 1549 1550 1550
1525 1527 1528 1529 1529 1530 1531 1532 1532 1533 1533 1534 1534 1534 1534 1535 1535 1536 1536 1536 1537 1538 1538 1539 1540 1541 1541 1542 1542 1543 1543 1544 1545 1546 1546 1547 1548 1549 1549 1550 1550 1550 1551
1524 1526 1527 1528 1529 1529 1530 1530 1531 1532 1532 1533 1533 1533 1533 1534 1534 1534 1535 1535 1536 1537 1537 1538 1539 1540 1540 1541 1542 1543 1543 1544 1545 1546 1547 1547 1548 1549 1549 1550 1551 1551 1552
1524 1525 1526 1527 1528 1528 1529 1529 1530 1530 1531 1532 1532 1533 1532 1532 1533 1533 1534 1534 1535 1535 1536 1537 1537 1538 1539 1540 1541 1542 1543 1544 1545 1546 1547 1547 1548 1549 1550 1550 1551 1551 1552
1523 1524 1525 1525 1526 1527 1527 1528 1528 1529 1529 1530 1531 1531 1531 1531 1532 1532 1532 1533 1533 1534 1535 1535 1536 1537 1538 1539 1540 1541 1542 1543 1544 1545 1546 1547 1548 1549 1549 1550 1551 1552 1552
1521 1522 1523 1524 1524 1525 1526 1526 1527 1527 1528 1528 1529 1529 1530 1530 1530 1530 1531 1531 1532 1532 1533 1534 1534 1535 1536 1537 1538 1539 1541 1542 1543 1544 1546 1547 1548 1548 1549 1550 1550 1551 1552
1519 1520 1521 1522 1523 1523 1524 1524 1525 1525 1525 1526 1527 1527 1528 1528 1528 1529 1529 1530 1530 1531 1531 1532 1533 1534 1534 1535 1537 1538 1539 1541 1542 1543 1545 1546 1547 1547 1548 1549 1550 1551 1551
1516 1518 1519 1520 1521 1521 1522 1522 1523 1523 1523 1524 1524 1525 1525 1526 1526 1527 1527 1527 1528 1529 1529 1530 1531 1532 1533 1534 1535 1536 1537 1539 1540 1542 1543 1544 1545 1546 1547 1548 1549 1550 1551
1514 1516 1517 1518 1519 1519 1520 1520 1520 1521 1521 1521 1522 1522 1523 1523 1524 1524 1525 1525 1526 1526 1527 1528 1529 1530 1531 1532 1533 1534 1536 1537 1538 1540 1541 1543 1544 1545 1546 1547 1548 1549 1550
1512 1513 1515 1516 1516 1517 1518 1518 1518 1518 1519 1519 1519 1520 1520 1521 1521 1522 1522 1523 1524 1524 1525 1526 1527 1528 1529 1530 1531 1532 1533 1535 1536 1537 1539 1540 1542 1543 1544 1545 1546 1547 1548
1510 1511 1512 1513 1514 1515 1515 1516 1516 1516 1516 1516 1516 1517 1518 1518 1519 1519 1520 1520 1521 1522 1523 1524 1524 1525 1526 1527 1528 1530 1531 1532 1534 1535 1536 1538 1539 1541 1542 1544 1544 1545 1547
1507 1509 1510 1511 1512 1512 1513 1513 1513 1513 1513 1513 1514 1514 1515 1515 1516 1516 1517 1517 1518 1519 1520 1521 1522 1523 1524 1525 1526 1527 1528 1530 1531 1532 1534 1535 1537 1538 1540 1541 1542 1543 1545
1505 1506 1507 1508 1509 1510 1510 1510 1511 1511 1511 1511 1511 1512 1512 1512 1513 1513 1514 1514 1515 1516 1517 1517 1519 1519 1521 1522 1523 1524 1525 1527 1528 1530 1531 1533 1534 1536 1537 1539 1540 1541 1543
1503 1503 1504 1505 1506 1507 1507 1507 1508 1509 1509 1508 1508 1509 1509 1509 1510 1510 1511 1511 1512 1513 1514 1514 1516 1517 1518 1519 1520 1521 1522 1524 1525 1527 1528 1530 1531 1533 1534 1536 1538 1539 1540
1500 1501 1501 1502 1503 1504 1504 1505 1506 1506 1506 1505 1505 1506 1506 1506 1507 1507 1508 1508 1509 1510 1510 1511 1513 1514 1515 1516 1517 1518 1519 1521 1522 1524 1525 1527 1528 1530 1532 1533 1535 1536 1538
1497 1498 1498 1499 1500 1501 1502 1502 1502 1502 1502 1502 1502 1502 1503 1503 1504 1504 1505 1505 1506 1506 1507 1508 1509 1510 1512 1513 1514 1514 1516 1518 1519 1520 1522 1523 1525 1527 1529 1530 1532 1533 1535
1494 1495 1496 1496 1497 1498 1498 1499 1499 1499 1499 1499 1499 1499 1500 1500 1501 1501 1501 1502 1503 1503 1504 1505 1506 1507 1508 1510 1511 1511 1512 1515 1515 1516 1518 1519 1521 1523 1525 1527 1528 1530 1531
1491 1491 1492 1493 1494 1494 1495 1496 1496 1496 1496 1496 1496 1496 1496 1497 1497 1498 1498 1499 1499 1500 1501 1502 1503 1504 1505 1506 1508 1509 1510 1510 1511 1512 1514 1515 1517 1519 1521 1523 1524 1526 1528
1488 1489 1489 1490 1491 1491 1492 1492 1492 1491 1491 1492 1492 1492 1493 1493 1494 1494 1495 1495 1496 1496 1497 1498 1499 1501 1502 1503 1504 1506 1507 1507 1509 1508 1510 1512 1513 1515 1516 1519 1520 1522 1524
1485 1486 1486 1486 1487 1487 1487 1488 1488 1488 1488 1489 1489 1489 1490 1490 1490 1490 1491 1491 1492 1493 1493 1494 1495 1497 1498 1499 1500 1502 1503 1504 1505 1506 1505 1507 1509 1511 1513 1514 1516 1518 1520
1483 1483 1483 1483 1483 1483 1484 1484 1484 1484 1485 1485 1485 1485 1485 1485 1485 1486 1486 1487 1488 1488 1489 1490 1491 1492 1494 1495 1497 1498 1499 1500 1501 1502 1502 1503 1504 1506 1508 1510 1511 1514 1516